Location: Harburg
(48.7667°N, 10.6667°E)
Time: 15:49:58
(UTC+00:00)

ARIANE 5 R/B - Pass Details

Date: 18 September 2020
Orbit: 620 x 657 km, 98.2° (Epoch: 09 October)

Event Time Altitude Azimuth Distance (km) Brightness Sun altitude
Exits shadow 19:37:43 43° 56° (NE) 887 3.1 -22.0°
Drops below altitude 10° 19:41:31 10° 358° (N) 2,003 5.6 -22.5°
Sets 19:43:46 0° 352° (N) 2,912 6.6 -22.8°
